Location: Lane
(33.5226°N, 79.8788°W)
Time: 20:56:03
(UTC+00:00)

Explorer 11/Cluster Stage 4 - Pass Details

Date: 02 October 2022
Orbit: 466 x 1247 km, 28.8° (Epoch: 01 December)

Event Time Altitude Azimuth Distance (km) Brightness Sun altitude
Rises 15:40:51 0° 224° (SW) 4,169 10.4 47.3°
Reaches altitude 10° 15:44:11 10° 215° (SW) 3,205 10.0 47.7°
Maximum altitude 15:51:03 30° 158° (SSE) 1,986 10.4 48.5°
Drops below altitude 10° 15:57:25 10° 100° (E) 2,970 10.0 49.1°
Sets 16:00:22 0° 90° (E) 3,823 10.3 49.4°
